Weather Roundup
Issued by NWS

Home | Current Version | Previous Version | Graphics & Text | Print | Product List | Glossary Off
Versions: 1 2 3 4 5 6 7 8 9 10 11 12 13 14 15 16 17 18 19 20 21 22 23 24 25 26 27 28 29 30 31 32 33 34 35 36 37 38 39 40 41 42 43 44 45 46 47 48 49 50

257
NZUS93 KARX 201910
HRRWXR

CURRENT HOURLY OBSERVATIONS ACROSS
MUCH OF THE UPPER MISSISSIPPI VALLEY
NATIONAL WEATHER SERVICE LA CROSSE WI
100 PM CST FRI JAN 20 2017


...SOUTHEAST MINNESOTA...


CITY           SKY/WX    TMP DP  RH WIND       PRES   REMARKS
ROCHESTER      FOG       34  34 100 SE7       29.54F VSB 1/4 WCI  28
ROCHESTER/MAYO CLOUDY    37  37 100 SE7       29.55F WCI  31
WINONA         FOG       36  36 100 SE6       29.60F VSB 1   WCI  31
AUSTIN         FOG       34  34 100 S3        29.55F VSB<1/4
ALBERT LEA     FOG       36  36 100 S7        29.54F VSB 3/4 WCI  30
DODGE CENTER   FOG       34  34 100 CALM      29.54F VSB<1/4
PRESTON        FOG       35  34  97 SE7       29.55F VSB 1/4 WCI  29
OWATONNA       CLOUDY    36  34  93 S6        29.54F FOG     WCI  31
FARIBAULT      CLOUDY    36  36 100 S6        29.55F WCI  31
$$

...ELSEWHERE IN MINNESOTA...


CITY           SKY/WX    TMP DP  RH WIND       PRES   REMARKS
MINNEAPOLIS    CLOUDY    36  34  92 SE6       29.56F WCI  31
INTNL FALLS    CLOUDY    38  34  85 SE8       29.55F WCI  32
DULUTH         LGT RAIN  35  34  96 E14       29.57F FOG     WCI  26
RED WING       FOG       36  34  93 SE7       29.57F VSB 1/4 WCI  30
REDWOOD FALLS  CLOUDY    36  35  96 SE9       29.50F FOG     WCI  29
MANKATO        CLOUDY    36  36 100 S7        29.53F FOG     WCI  30
WORTHINGTON    CLOUDY    36  36 100 SE12      29.48  FOG     WCI  28
FAIRMONT       CLOUDY    36  36 100 SE8       29.51F WCI  30
$$

...SOUTHWEST WISCONSIN...


CITY           SKY/WX    TMP DP  RH WIND       PRES   REMARKS
LA CROSSE      CLOUDY    40  36  86 CALM      29.60F FOG
PRAIRIE DU CHI CLOUDY    38  37  97 CALM      29.60F FOG
BOSCOBEL       CLOUDY    40  38  93 NE3       29.61F FOG
LONE ROCK      FOG       37  36  96 E8        29.62F VSB 3/4 WCI  31
PLATTEVILLE    CLOUDY    38  38 100 SE5       29.60F VSB 1/4 WCI  34
FORT MC COY    CLOUDY    35  35  99 SE6       29.62F FOG     WCI  30
CAMP DOUGLAS   CLOUDY    36  35  98 E6        29.61F FOG     WCI  31
MAUSTON-NEW LI FOG       37  36  97 SE6       29.60F VSB 1   WCI  32
VIROQUA        CLOUDY    36  36 100 SE7       29.59S VSB 1/4 WCI  30
WIS DELLS      CLOUDY    35  35  99 E6        29.61F FOG     WCI  30
$$

...ELSEWHERE IN WISCONSIN...


CITY           SKY/WX    TMP DP  RH WIND       PRES   REMARKS
MILWAUKEE      CLOUDY    39  37  92 E9        29.64F FOG     WCI  33
MADISON        CLOUDY    37  36  96 E9        29.63F FOG     WCI  30
GREEN BAY      LGT RAIN  35  35 100 NE7       29.66F FOG     WCI  29
EAU CLAIRE     CLOUDY    36  35  96 SE6       29.59F FOG     WCI  31
BLACK RVR FLS  FOG       37  37 100 SE8       29.61F VSB 1   WCI  31
MEDFORD        RAIN      35  34  96 E9        29.59F WCI  28
WAUSAU         LGT RAIN  35  34  96 E8        29.61F WCI  29
WIS RAPIDS     CLOUDY    36  35  96 SE6       29.63F FOG     WCI  31
MARSHFIELD     CLOUDY    34  33  96 SE10      29.60F FOG     WCI  26
RICE LAKE      CLOUDY    35  35  98 SE6       29.60F FOG     WCI  30
$$

...NORTHEAST IOWA...


CITY           SKY/WX    TMP DP  RH WIND       PRES   REMARKS
WATERLOO       CLOUDY    39  37  92 S3        29.55F FOG
DUBUQUE        FOG       38  38 100 SE6       29.57F VSB 1/2 WCI  33
DECORAH        FOG       36  36 100 SE7       29.57S VSB<1/4 WCI  30
MASON CITY     FOG       34  34 100 SE5       29.55F VSB 1/4 WCI  30
CHARLES CITY   FOG       36  36 100 E5        29.55F VSB<1/4 WCI  32
OELWEIN        FOG       36  36 100 SE6       29.56F VSB<1/4 WCI  31
$$

...ELSEWHERE IN IOWA...


CITY           SKY/WX    TMP DP  RH WIND       PRES   REMARKS
DES MOINES     CLOUDY    42  40  92 SE7       29.55F FOG
IOWA CITY      CLOUDY    41  39  93 CALM      29.58F FOG
FORT DODGE     CLOUDY    36  34  93 CALM      29.55F
MARSHALLTOWN   FOG       38  38 100 SE7       29.55F VSB 1/2 WCI  33
CEDAR RAPIDS   CLOUDY    38  38 100 SE5       29.55F FOG     WCI  34
$$

...NORTHERN ILLINOIS...


CITY           SKY/WX    TMP DP  RH WIND       PRES   REMARKS
CHICAGO-OHARE  DRIZZLE   41  39  93 CALM      29.62F FOG
CHICAGO-MIDWAY CLOUDY    40  39  97 CALM      29.63F FOG
MOLINE         CLOUDY    45  41  86 S5        29.57F
ROCKFORD       CLOUDY    41  39  93 SE5       29.63F FOG
PEORIA         CLOUDY    46  45  96 S3        29.60F
$$

NOTE: "FAIR" INDICATES FEW OR NO CLOUDS BELOW 12,000 FEET WITH NO
SIGNIFICANT WEATHER AND/OR OBSTRUCTIONS TO VISIBILITY. WIND
SPEEDS ARE IN MILES-PER-HOUR.




USA.gov is the U.S. government's official web portal to all federal, state and local government web resources and services.